Time,TemperatureF,DewpointF,PressureIn,WindDirection,WindDirectionDegrees,WindSpeedMPH,WindSpeedGustMPH,Humidity,HourlyPrecipIn,Conditions,Clouds,dailyrainin,SoftwareType,DateUTC
2013-06-06 00:02:00,70.0,69.0,29.86,SE,137,0.0,15.0,97,0.01,,,0.98,,2013-06-06 05:02:00,
2013-06-06 00:12:00,70.0,69.0,29.86,SE,137,0.0,15.0,97,0.01,,,0.98,,2013-06-06 05:12:00,
2013-06-06 00:22:00,70.0,69.0,29.86,SE,137,0.0,15.0,97,0.01,,,0.98,,2013-06-06 05:22:00,
2013-06-06 00:32:00,71.0,70.0,29.85,SE,137,0.0,1.0,97,0.00,,,0.98,,2013-06-06 05:32:00,
2013-06-06 00:42:00,71.0,70.0,29.85,SE,137,0.0,1.0,97,0.00,,,0.98,,2013-06-06 05:42:00,
2013-06-06 00:52:00,70.0,69.0,29.84,South,178,0.0,3.0,97,0.00,,,0.98,,2013-06-06 05:52:00,
2013-06-06 01:02:00,70.0,69.0,29.81,South,178,0.0,3.0,97,0.00,,,0.98,,2013-06-06 06:02:00,
2013-06-06 01:12:00,70.0,69.0,29.83,East,101,1.0,3.0,97,0.00,,,0.98,,2013-06-06 06:12:00,
2013-06-06 01:22:00,70.0,69.0,29.83,East,101,1.0,3.0,97,0.00,,,0.98,,2013-06-06 06:22:00,
2013-06-06 01:32:00,70.0,69.0,29.82,East,101,0.0,3.0,97,0.00,,,0.98,,2013-06-06 06:32:00,
2013-06-06 01:42:00,70.0,69.0,29.82,East,101,0.0,3.0,97,0.00,,,0.98,,2013-06-06 06:42:00,
2013-06-06 01:52:00,70.0,69.0,29.83,East,101,0.0,3.0,97,0.00,,,0.98,,2013-06-06 06:52:00,
2013-06-06 02:02:00,69.0,68.0,29.83,East,101,0.0,3.0,97,0.00,,,0.98,,2013-06-06 07:02:00,
2013-06-06 02:12:00,69.0,68.0,29.83,East,101,0.0,3.0,97,0.00,,,0.98,,2013-06-06 07:12:00,
2013-06-06 02:22:00,69.0,68.0,29.83,East,101,0.0,3.0,97,0.00,,,0.98,,2013-06-06 07:22:00,
2013-06-06 02:32:00,69.0,68.0,29.82,East,101,0.0,3.0,98,0.00,,,0.98,,2013-06-06 07:32:00,
2013-06-06 02:42:00,69.0,68.0,29.82,East,101,0.0,3.0,98,0.00,,,0.98,,2013-06-06 07:42:00,
2013-06-06 02:52:00,69.0,68.0,29.80,East,101,0.0,3.0,98,0.00,,,0.98,,2013-06-06 07:52:00,
2013-06-06 03:02:00,69.0,68.0,29.78,East,101,0.0,3.0,98,0.00,,,0.98,,2013-06-06 08:02:00,
2013-06-06 03:12:00,69.0,68.0,29.78,ESE,120,0.0,3.0,98,0.00,,,0.98,,2013-06-06 08:12:00,
2013-06-06 03:22:00,69.0,68.0,29.78,ESE,120,0.0,3.0,98,0.00,,,0.98,,2013-06-06 08:22:00,
2013-06-06 03:32:00,69.0,68.0,29.78,ESE,120,0.0,3.0,98,0.00,,,0.98,,2013-06-06 08:32:00,
2013-06-06 03:42:00,69.0,68.0,29.78,ESE,120,0.0,3.0,98,0.00,,,0.98,,2013-06-06 08:42:00,
2013-06-06 03:52:00,69.0,68.0,29.78,ESE,120,0.0,3.0,98,0.00,,,0.98,,2013-06-06 08:52:00,
2013-06-06 04:02:00,69.0,68.0,29.78,ESE,120,0.0,3.0,98,0.00,,,0.98,,2013-06-06 09:02:00,
2013-06-06 04:12:00,68.0,67.0,29.79,ESE,120,0.0,3.0,98,0.00,,,0.98,,2013-06-06 09:12:00,
2013-06-06 04:22:00,68.0,67.0,29.79,ESE,120,0.0,3.0,98,0.00,,,0.98,,2013-06-06 09:22:00,
2013-06-06 04:33:00,68.0,67.0,29.80,ESE,120,0.0,3.0,98,0.00,,,0.98,,2013-06-06 09:33:00,
2013-06-06 04:43:00,68.0,67.0,29.80,ESE,120,0.0,3.0,98,0.00,,,0.98,,2013-06-06 09:43:00,
2013-06-06 04:53:00,68.0,67.0,29.80,ESE,120,0.0,3.0,98,0.00,,,0.98,,2013-06-06 09:53:00,
2013-06-06 05:03:00,68.0,67.0,29.79,ESE,120,0.0,3.0,98,0.00,,,0.98,,2013-06-06 10:03:00,
2013-06-06 05:12:00,68.0,67.0,29.78,ESE,120,0.0,3.0,98,0.00,,,0.98,,2013-06-06 10:12:00,
2013-06-06 05:22:00,68.0,67.0,29.78,ESE,120,0.0,3.0,98,0.00,,,0.98,,2013-06-06 10:22:00,
2013-06-06 05:33:00,68.0,67.0,29.79,ESE,120,0.0,3.0,98,0.00,,,0.98,,2013-06-06 10:33:00,
2013-06-06 05:42:00,68.0,67.0,29.79,ESE,120,0.0,3.0,98,0.00,,,0.98,,2013-06-06 10:42:00,
2013-06-06 05:53:00,68.0,67.0,29.79,ESE,120,0.0,3.0,98,0.00,,,0.98,,2013-06-06 10:53:00,
2013-06-06 06:02:00,68.0,67.0,29.80,NW,322,0.0,3.0,98,0.00,,,0.98,,2013-06-06 11:02:00,
2013-06-06 06:12:00,68.0,67.0,29.80,NW,322,0.0,3.0,98,0.00,,,0.98,,2013-06-06 11:12:00,
2013-06-06 06:22:00,68.0,67.0,29.80,NW,322,0.0,3.0,98,0.00,,,0.98,,2013-06-06 11:22:00,
2013-06-06 06:32:00,68.0,67.0,29.81,NW,322,0.0,3.0,98,0.00,,,0.98,,2013-06-06 11:32:00,
2013-06-06 06:42:00,68.0,67.0,29.81,NW,322,0.0,3.0,98,0.00,,,0.98,,2013-06-06 11:42:00,
2013-06-06 06:52:00,69.0,69.0,29.81,NW,322,0.0,3.0,99,0.00,,,0.98,,2013-06-06 11:52:00,
2013-06-06 07:02:00,69.0,69.0,29.82,NW,322,0.0,3.0,99,0.00,,,0.98,,2013-06-06 12:02:00,
2013-06-06 07:12:00,69.0,69.0,29.80,NW,322,0.0,3.0,99,0.00,,,0.98,,2013-06-06 12:12:00,
2013-06-06 07:22:00,69.0,69.0,29.80,NW,322,0.0,3.0,99,0.00,,,0.98,,2013-06-06 12:22:00,
2013-06-06 07:32:00,70.0,70.0,29.80,NW,322,0.0,3.0,99,0.00,,,0.98,,2013-06-06 12:32:00,
2013-06-06 07:42:00,70.0,70.0,29.80,NW,322,0.0,3.0,99,0.00,,,0.98,,2013-06-06 12:42:00,
2013-06-06 07:53:00,70.0,70.0,29.80,NW,322,0.0,3.0,99,0.00,,,0.98,,2013-06-06 12:53:00,
2013-06-06 08:03:00,71.0,71.0,29.81,West,272,0.0,4.0,99,0.00,,,0.98,,2013-06-06 13:03:00,
2013-06-06 08:12:00,71.0,71.0,29.81,West,272,0.0,4.0,99,0.00,,,0.98,,2013-06-06 13:12:00,
2013-06-06 08:22:00,71.0,71.0,29.81,West,272,0.0,4.0,99,0.00,,,0.98,,2013-06-06 13:22:00,
2013-06-06 08:32:00,72.0,72.0,29.81,West,272,0.0,4.0,99,0.00,,,0.98,,2013-06-06 13:32:00,
2013-06-06 08:42:00,73.0,73.0,29.82,West,264,0.0,4.0,99,0.00,,,0.98,,2013-06-06 13:42:00,
2013-06-06 08:52:00,73.0,73.0,29.82,West,264,0.0,4.0,99,0.00,,,0.98,,2013-06-06 13:52:00,
2013-06-06 09:03:00,74.0,74.0,29.81,WSW,243,0.0,4.0,99,0.00,,,0.98,,2013-06-06 14:03:00,
2013-06-06 09:12:00,75.0,75.0,29.82,West,261,0.0,4.0,99,0.00,,,0.98,,2013-06-06 14:12:00,
2013-06-06 09:22:00,75.0,75.0,29.82,West,261,0.0,4.0,99,0.00,,,0.98,,2013-06-06 14:22:00,
2013-06-06 09:33:00,76.0,75.0,29.81,WNW,292,1.0,4.0,98,0.00,,,0.98,,2013-06-06 14:33:00,
2013-06-06 09:43:00,76.0,75.0,29.81,WNW,292,1.0,4.0,98,0.00,,,0.98,,2013-06-06 14:43:00,
2013-06-06 09:52:00,76.0,75.0,29.81,WNW,292,0.0,4.0,98,0.00,,,0.98,,2013-06-06 14:52:00,
2013-06-06 10:03:00,78.0,76.0,29.80,NNW,328,1.0,4.0,95,0.00,,,0.98,,2013-06-06 15:03:00,
2013-06-06 10:12:00,79.0,76.0,29.80,West,278,0.0,4.0,91,0.00,,,0.98,,2013-06-06 15:12:00,
2013-06-06 10:23:00,79.0,76.0,29.80,West,278,0.0,4.0,91,0.00,,,0.98,,2013-06-06 15:23:00,
2013-06-06 10:33:00,80.0,76.0,29.78,West,273,0.0,4.0,87,0.00,,,0.98,,2013-06-06 15:33:00,
2013-06-06 10:43:00,80.0,76.0,29.78,West,273,0.0,4.0,87,0.00,,,0.98,,2013-06-06 15:43:00,
2013-06-06 10:52:00,82.0,77.0,29.78,West,269,0.0,5.0,86,0.00,,,0.98,,2013-06-06 15:52:00,
2013-06-06 11:03:00,83.0,77.0,29.78,NNW,328,0.0,5.0,83,0.00,,,0.98,,2013-06-06 16:03:00,
2013-06-06 11:12:00,83.0,77.0,29.79,North,353,0.0,5.0,82,0.00,,,0.98,,2013-06-06 16:12:00,
2013-06-06 11:23:00,83.0,77.0,29.79,North,353,0.0,5.0,82,0.00,,,0.98,,2013-06-06 16:23:00,
2013-06-06 11:33:00,84.0,77.0,29.79,SSW,213,1.0,5.0,80,0.00,,,0.98,,2013-06-06 16:33:00,
2013-06-06 11:43:00,84.0,77.0,29.79,SSW,213,1.0,5.0,80,0.00,,,0.98,,2013-06-06 16:43:00,
2013-06-06 11:53:00,85.0,78.0,29.79,NW,316,0.0,5.0,80,0.00,,,0.98,,2013-06-06 16:53:00,
2013-06-06 12:03:00,86.0,78.0,29.80,WSW,255,1.0,6.0,76,0.00,,,0.98,,2013-06-06 17:03:00,
2013-06-06 12:13:00,86.0,78.0,29.80,WNW,303,2.0,6.0,76,0.00,,,0.98,,2013-06-06 17:13:00,
2013-06-06 12:22:00,86.0,78.0,29.80,WNW,303,2.0,6.0,76,0.00,,,0.98,,2013-06-06 17:22:00,
2013-06-06 12:33:00,84.0,76.0,29.80,WSW,241,0.0,11.0,78,0.03,,,1.01,,2013-06-06 17:33:00,
2013-06-06 12:42:00,84.0,76.0,29.80,WSW,241,0.0,11.0,78,0.03,,,1.01,,2013-06-06 17:42:00,
2013-06-06 12:52:00,79.0,74.0,29.80,South,178,0.0,11.0,86,0.06,,,1.04,,2013-06-06 17:52:00,
2013-06-06 13:03:00,77.0,73.0,29.79,South,178,0.0,11.0,87,0.06,,,1.04,,2013-06-06 18:03:00,
2013-06-06 13:13:00,77.0,73.0,29.79,South,178,0.0,11.0,87,0.06,,,1.04,,2013-06-06 18:13:00,
2013-06-06 13:23:00,78.0,75.0,29.77,South,178,0.0,11.0,90,0.06,,,1.04,,2013-06-06 18:23:00,
2013-06-06 13:33:00,77.0,74.0,29.78,South,187,1.0,11.0,91,0.08,,,1.11,,2013-06-06 18:33:00,
2013-06-06 13:43:00,77.0,74.0,29.78,South,187,1.0,11.0,91,0.08,,,1.11,,2013-06-06 18:43:00,
2013-06-06 13:53:00,76.0,73.0,29.76,WSW,247,0.0,11.0,89,0.18,,,1.22,,2013-06-06 18:53:00,
2013-06-06 14:03:00,76.0,74.0,29.75,WSW,247,0.0,11.0,94,0.18,,,1.22,,2013-06-06 19:03:00,
2013-06-06 14:12:00,77.0,75.0,29.75,WSW,247,0.0,11.0,95,0.18,,,1.22,,2013-06-06 19:12:00,
2013-06-06 14:23:00,77.0,75.0,29.75,WSW,247,0.0,11.0,95,0.18,,,1.22,,2013-06-06 19:23:00,
2013-06-06 14:33:00,78.0,77.0,29.74,WSW,247,0.0,11.0,96,0.16,,,1.22,,2013-06-06 19:33:00,
2013-06-06 14:42:00,78.0,77.0,29.74,WSW,247,0.0,11.0,96,0.16,,,1.22,,2013-06-06 19:42:00,
2013-06-06 14:52:00,78.0,76.0,29.75,WSW,247,0.0,11.0,95,0.00,,,1.22,,2013-06-06 19:52:00,
2013-06-06 15:03:00,76.0,74.0,29.75,WSW,247,0.0,11.0,94,0.00,,,1.22,,2013-06-06 20:03:00,
2013-06-06 15:13:00,75.0,73.0,29.76,West,277,2.0,13.0,93,0.03,,,1.25,,2013-06-06 20:13:00,
2013-06-06 15:23:00,75.0,73.0,29.76,West,277,2.0,13.0,93,0.03,,,1.25,,2013-06-06 20:23:00,
2013-06-06 15:33:00,74.0,71.0,29.77,NW,305,5.0,21.0,90,0.04,,,1.26,,2013-06-06 20:33:00,
2013-06-06 15:42:00,74.0,71.0,29.77,NW,305,5.0,21.0,90,0.04,,,1.26,,2013-06-06 20:42:00,
2013-06-06 15:53:00,71.0,69.0,29.80,NNE,33,6.0,21.0,92,0.06,,,1.28,,2013-06-06 20:53:00,
2013-06-06 16:03:00,70.0,68.0,29.80,NW,317,1.0,21.0,94,0.08,,,1.30,,2013-06-06 21:03:00,
2013-06-06 16:12:00,70.0,68.0,29.80,NW,318,0.0,21.0,95,0.11,,,1.36,,2013-06-06 21:12:00,
2013-06-06 16:22:00,70.0,68.0,29.80,NW,318,0.0,21.0,95,0.11,,,1.36,,2013-06-06 21:22:00,
2013-06-06 16:33:00,70.0,68.0,29.80,WNW,283,0.0,21.0,95,0.11,,,1.39,,2013-06-06 21:33:00,
2013-06-06 16:43:00,70.0,68.0,29.80,WNW,283,0.0,21.0,95,0.11,,,1.39,,2013-06-06 21:43:00,
2013-06-06 16:53:00,70.0,69.0,29.78,WNW,283,0.0,21.0,96,0.12,,,1.41,,2013-06-06 21:53:00,
2013-06-06 17:02:00,70.0,69.0,29.78,North,355,0.0,21.0,96,0.12,,,1.36,,2013-06-06 22:02:00,
2013-06-06 17:13:00,70.0,69.0,29.77,North,355,0.0,21.0,96,0.07,,,1.00,,2013-06-06 22:13:00,
2013-06-06 17:23:00,70.0,69.0,29.77,North,355,0.0,21.0,96,0.07,,,1.00,,2013-06-06 22:23:00,
2013-06-06 17:33:00,70.0,69.0,29.74,North,355,0.0,21.0,97,0.03,,,0.57,,2013-06-06 22:33:00,
2013-06-06 17:43:00,70.0,69.0,29.74,North,355,0.0,21.0,97,0.03,,,0.57,,2013-06-06 22:43:00,
2013-06-06 17:52:00,71.0,70.0,29.77,West,278,0.0,21.0,97,0.01,,,0.46,,2013-06-06 22:52:00,
2013-06-06 18:02:00,71.0,70.0,29.77,NW,311,0.0,21.0,97,0.00,,,0.45,,2013-06-06 23:02:00,
2013-06-06 18:12:00,71.0,70.0,29.75,NW,311,0.0,21.0,97,0.00,,,0.45,,2013-06-06 23:12:00,
2013-06-06 18:22:00,71.0,70.0,29.75,NW,311,0.0,21.0,97,0.00,,,0.45,,2013-06-06 23:22:00,
2013-06-06 18:33:00,71.0,70.0,29.76,NW,311,0.0,21.0,97,0.00,,,0.45,,2013-06-06 23:33:00,
2013-06-06 18:42:00,71.0,70.0,29.76,NW,311,0.0,21.0,97,0.00,,,0.45,,2013-06-06 23:42:00,
2013-06-06 18:52:00,71.0,70.0,29.75,NW,311,0.0,21.0,97,0.00,,,0.45,,2013-06-06 23:52:00,
2013-06-06 19:02:00,71.0,70.0,29.76,NW,311,0.0,21.0,97,0.00,,,0.45,,2013-06-07 00:02:00,
2013-06-06 19:12:00,71.0,70.0,29.76,NW,311,0.0,21.0,97,0.00,,,0.45,,2013-06-07 00:12:00,
2013-06-06 19:22:00,71.0,70.0,29.75,NW,311,0.0,21.0,97,0.00,,,0.45,,2013-06-07 00:22:00,
2013-06-06 19:32:00,71.0,70.0,29.75,NW,311,0.0,21.0,97,0.00,,,0.45,,2013-06-07 00:32:00,
2013-06-06 19:42:00,71.0,70.0,29.75,NW,311,0.0,21.0,97,0.00,,,0.45,,2013-06-07 00:42:00,
2013-06-06 19:52:00,71.0,70.0,29.75,NW,311,0.0,21.0,97,0.00,,,0.45,,2013-06-07 00:52:00,
2013-06-06 20:02:00,71.0,70.0,29.76,NW,311,0.0,21.0,97,0.00,,,0.45,,2013-06-07 01:02:00,
2013-06-06 20:12:00,71.0,70.0,29.76,NW,311,0.0,21.0,97,0.00,,,0.45,,2013-06-07 01:12:00,
2013-06-06 20:22:00,71.0,70.0,29.76,NW,311,0.0,21.0,97,0.00,,,0.45,,2013-06-07 01:22:00,
2013-06-06 20:32:00,70.0,69.0,29.77,NW,311,0.0,21.0,97,0.00,,,0.45,,2013-06-07 01:32:00,
2013-06-06 20:42:00,70.0,69.0,29.77,NW,311,0.0,21.0,97,0.00,,,0.45,,2013-06-07 01:42:00,
2013-06-06 20:52:00,70.0,69.0,29.78,NW,311,0.0,21.0,97,0.00,,,0.45,,2013-06-07 01:52:00,
2013-06-06 21:02:00,70.0,69.0,29.78,NW,311,0.0,21.0,97,0.00,,,0.45,,2013-06-07 02:02:00,
2013-06-06 21:12:00,70.0,69.0,29.78,NW,311,0.0,21.0,97,0.00,,,0.45,,2013-06-07 02:12:00,
2013-06-06 21:22:00,70.0,69.0,29.78,NW,311,0.0,21.0,97,0.00,,,0.45,,2013-06-07 02:22:00,
2013-06-06 21:32:00,70.0,69.0,29.79,NW,311,0.0,21.0,98,0.00,,,0.45,,2013-06-07 02:32:00,
2013-06-06 21:42:00,70.0,69.0,29.79,NW,311,0.0,21.0,98,0.00,,,0.45,,2013-06-07 02:42:00,
2013-06-06 21:52:00,70.0,69.0,29.80,NW,311,0.0,21.0,98,0.00,,,0.45,,2013-06-07 02:52:00,
2013-06-06 22:02:00,70.0,69.0,29.80,NW,311,0.0,21.0,98,0.00,,,0.45,,2013-06-07 03:02:00,
2013-06-06 22:12:00,69.0,68.0,29.79,NW,311,0.0,21.0,98,0.00,,,0.45,,2013-06-07 03:12:00,
2013-06-06 22:22:00,69.0,68.0,29.79,NW,311,0.0,21.0,98,0.00,,,0.45,,2013-06-07 03:22:00,
2013-06-06 22:33:00,69.0,68.0,29.79,NW,311,0.0,21.0,98,0.00,,,0.45,,2013-06-07 03:33:00,
2013-06-06 22:43:00,69.0,68.0,29.79,NW,311,0.0,21.0,98,0.00,,,0.45,,2013-06-07 03:43:00,
2013-06-06 22:53:00,69.0,68.0,29.79,NW,311,0.0,21.0,98,0.00,,,0.45,,2013-06-07 03:53:00,
2013-06-06 23:03:00,69.0,68.0,29.79,NW,311,0.0,21.0,98,0.00,,,0.45,,2013-06-07 04:03:00,
2013-06-06 23:12:00,69.0,68.0,29.79,NW,311,0.0,21.0,98,0.00,,,0.45,,2013-06-07 04:12:00,
2013-06-06 23:22:00,69.0,68.0,29.79,NW,311,0.0,21.0,98,0.00,,,0.45,,2013-06-07 04:22:00,
2013-06-06 23:33:00,69.0,68.0,29.78,NW,311,0.0,21.0,98,0.00,,,0.44,,2013-06-07 04:33:00,
2013-06-06 23:42:00,69.0,68.0,29.78,NW,311,0.0,21.0,98,0.00,,,0.44,,2013-06-07 04:42:00,
2013-06-06 23:53:00,69.0,68.0,29.78,NW,311,0.0,21.0,98,0.00,,,0.44,,2013-06-07 04:53:00,